This is the latest recevied weather packets stored in our database for station/object W8CEN. If no packets are shown the sender has not sent any weather packets the latest 10 day(s).
| Time | Temp. | Humidity | Pressure | Rain* | Wind** | Luminosity | Snow |
|---|---|---|---|---|---|---|---|
| 1778019521 | 10° C | 93% | 987 hPa | 1.78 mm | - | 61 W/m² | - |
| 1778019218 | 10° C | 92% | 987.2 hPa | 3.05 mm | - | 40 W/m² | - |
| 1778018915 | 10.56° C | 94% | 987 hPa | 3.05 mm | - | 70 W/m² | - |
| 1778018612 | 10.56° C | 94% | 986.7 hPa | 3.05 mm | - | 49 W/m² | - |
| 1778018310 | 10.56° C | 93% | 986.8 hPa | 3.05 mm | - | 52 W/m² | - |
| 1778018008 | 10.56° C | 93% | 987.2 hPa | 3.56 mm | - | 24 W/m² | - |
| 1778017706 | 10.56° C | 93% | 986.9 hPa | 3.05 mm | - | 42 W/m² | - |
| 1778017403 | 10.56° C | 93% | 986.8 hPa | 1.27 mm | - | 52 W/m² | - |
| 1778017099 | 10.56° C | 93% | 986.7 hPa | 1.78 mm | - | 44 W/m² | - |
| 1778016798 | 10.56° C | 93% | 986.8 hPa | 3.05 mm | - | 45 W/m² | - |
| 1778016493 | 11.11° C | 93% | 987 hPa | 3.05 mm | - | 46 W/m² | - |
| 1778016191 | 11.11° C | 93% | 986.9 hPa | 1.78 mm | - | 43 W/m² | - |
| 1778015886 | 11.11° C | 93% | 986.9 hPa | 1.27 mm | - | 48 W/m² | - |
| 1778015584 | 11.11° C | 93% | 986.6 hPa | 3.05 mm | - | 60 W/m² | - |
| 1778015280 | 11.11° C | 93% | 986.5 hPa | 3.05 mm | - | 52 W/m² | - |
| 1778014978 | 11.11° C | 93% | 986.5 hPa | 3.05 mm | - | 42 W/m² | - |
| 1778014675 | 11.67° C | 93% | 986.5 hPa | 3.05 mm | - | 51 W/m² | - |
| 1778014373 | 11.11° C | 92% | 986.7 hPa | 3.05 mm | - | 51 W/m² | - |
| 1778014069 | 11.67° C | 92% | 986.5 hPa | 3.05 mm | - | 31 W/m² | - |
| 1778013767 | 11.67° C | 92% | 986.7 hPa | 1.78 mm | - | 44 W/m² | - |
| 1778013464 | 11.67° C | 92% | 986.8 hPa | 1.78 mm | - | 64 W/m² | - |
| 1778013161 | 11.67° C | 92% | 986.6 hPa | 3.05 mm | - | 88 W/m² | - |
| 1778012857 | 11.67° C | 91% | 986.6 hPa | 1.27 mm | - | 78 W/m² | - |
| 1778012553 | 11.67° C | 91% | 986.7 hPa | 1.78 mm | - | 80 W/m² | - |
| 1778012249 | 11.67° C | 91% | 987 hPa | 1.78 mm | - | 68 W/m² | - |
* Rain latest hour (hover to see other rain measurements)
** Current wind speed in m/s (hover to see current wind gust speed)